Date,TemperatureHighF,TemperatureAvgF,TemperatureLowF,DewpointHighF,DewpointAvgF,DewpointLowF,HumidityHigh,HumidityAvg,HumidityLow,PressureMaxIn,PressureMinIn,WindSpeedMaxMPH,WindSpeedAvgMPH,GustSpeedMaxMPH,PrecipitationSumIn
2013-3-1,28.8,26.4,24.4,20.1,18.0,15.6,79,71,60,30.40,30.26,12,5,19,0.00
2013-3-2,34.6,27.6,19.5,24.0,18.3,13.5,80,68,50,30.40,30.15,4,1,6,0.00
2013-3-3,40.6,32.9,26.3,29.7,25.1,21.3,83,73,64,30.14,29.76,9,4,17,0.00
2013-3-4,42.8,35.8,30.7,31.2,27.4,23.6,80,71,62,30.05,29.68,10,3,15,0.00
2013-3-5,34.3,28.5,24.7,23.8,18.0,14.8,70,64,55,30.43,30.02,17,10,26,0.00
2013-3-6,37.9,28.9,22.1,22.5,18.7,15.1,77,66,49,30.48,30.29,6,2,10,0.00
2013-3-7,50.7,34.7,23.3,30.4,24.2,17.9,80,67,43,30.31,30.11,9,5,15,0.00
2013-3-8,55.1,41.6,29.7,38.1,31.5,24.0,85,68,50,30.20,29.91,13,4,17,0.12
2013-3-9,54.1,46.6,37.0,49.7,42.8,34.1,92,87,80,29.90,29.53,13,3,17,0.05
2013-3-10,36.8,29.0,23.2,33.9,26.5,20.7,95,90,86,29.98,29.68,17,11,26,0.03
2013-3-11,31.3,23.8,17.0,20.6,17.7,11.5,90,78,59,30.06,29.93,12,4,20,0.07
2013-3-12,33.8,28.1,18.6,23.4,19.7,12.3,86,71,59,30.37,30.06,14,5,24,0.03
2013-3-13,37.5,27.0,14.6,22.3,17.5,10.9,86,68,47,30.50,30.29,3,0,7,0.00
2013-3-14,56.6,41.4,30.3,41.1,31.1,22.0,87,67,53,30.28,30.07,5,1,7,0.00
2013-3-15,62.7,45.9,31.9,45.0,37.6,29.6,93,75,48,30.08,29.69,6,1,7,0.00
2013-3-16,40.9,33.6,30.0,37.0,27.0,22.4,88,77,65,30.21,29.83,12,7,17,0.00
2013-3-17,45.1,33.9,24.7,32.0,24.7,18.8,88,70,51,30.19,29.77,10,5,13,0.00
2013-3-18,37.9,34.0,25.4,33.3,22.7,13.9,94,66,39,30.08,29.75,19,6,24,0.09
2013-3-19,52.3,33.4,21.0,24.8,17.6,12.5,74,54,27,30.36,30.07,12,3,14,0.00
2013-3-20,35.2,25.2,16.9,16.1,8.3,1.7,69,50,31,30.45,30.15,11,6,19,0.00
2013-3-21,32.7,26.9,21.1,18.7,12.9,8.4,69,56,36,30.15,29.95,8,3,10,0.00
2013-3-22,35.2,31.3,26.9,20.9,18.1,15.7,71,58,46,30.06,29.99,7,3,10,0.00
2013-3-23,37.2,32.0,27.9,29.5,24.8,19.9,92,75,55,30.13,30.04,12,6,14,0.00
2013-3-24,28.7,26.9,25.1,25.8,21.0,18.0,90,78,66,30.13,30.06,15,8,18,0.00
2013-3-25,31.2,27.1,25.0,23.6,21.0,17.9,87,78,61,30.38,30.11,13,7,15,0.00
2013-3-26,41.3,27.6,14.0,22.4,17.4,9.5,84,67,42,30.42,30.27,3,0,8,0.00
2013-3-27,52.0,37.4,25.1,30.3,24.8,19.5,81,62,38,30.30,30.19,10,3,15,0.00
2013-3-28,59.8,42.8,26.1,34.9,28.8,23.0,92,62,30,30.27,30.14,6,1,9,0.00
2013-3-29,69.3,50.8,30.1,39.2,31.9,26.1,90,54,23,30.23,30.01,8,2,9,0.00
2013-3-30,67.9,55.8,47.7,53.3,42.6,29.6,92,65,27,30.05,29.86,13,2,16,0.44
2013-3-31,57.5,25.4,39.1,41.5,-36.1,-99.9,89,24,26,30.10,29.90,11,-508,15,0.00